,,,PA_Meas_PMT16A,,PR_Meas_QMR101_102,,RH_Meas_QMH101,,SR_Meas_QMS101,,TA_Meas_QMH101,,GenWind,,GenWind,
date,time,status,PA,status,PR,status,RH,status,SR,status,TA,status,DirAvg,status,SpdAvg,
2008-10-11, 00:00:04,VALID,1005.96,VALID,0,VALID,90.3488,VALID,0,VALID,25.6525,VALID,18,VALID,0.922266,
2008-10-11, 00:01:04,VALID,1006.01,VALID,0,VALID,90.1352,VALID,0,VALID,25.6506,VALID,351,VALID,1.50039,
2008-10-11, 00:02:04,VALID,1006,VALID,0,VALID,89.4486,VALID,0,VALID,25.709,VALID,356,VALID,2.05469,
2008-10-11, 00:03:04,VALID,1006,VALID,0,VALID,89.0672,VALID,0,VALID,25.7304,VALID,9,VALID,1.75937,
2008-10-11, 00:04:04,VALID,1005.94,VALID,0,VALID,88.968,VALID,0,VALID,25.6895,VALID,3,VALID,1.71445,
2008-10-11, 00:05:04,VALID,1005.93,VALID,0,VALID,88.9985,VALID,0,VALID,25.7109,VALID,12,VALID,1.11992,
2008-10-11, 00:06:04,VALID,1005.92,VALID,0,VALID,88.9985,VALID,0,VALID,25.6915,VALID,9,VALID,1.34766,
2008-10-11, 00:07:04,VALID,1005.86,VALID,0,VALID,89.029,VALID,0,VALID,25.6915,VALID,354,VALID,1.33242,
2008-10-11, 00:08:04,VALID,1005.84,VALID,0,VALID,89.0519,VALID,0,VALID,25.67,VALID,357,VALID,1.43789,
2008-10-11, 00:09:04,VALID,1005.79,VALID,0,VALID,88.7391,VALID,0,VALID,25.672,VALID,358,VALID,1.63047,
2008-10-11, 00:10:04,VALID,1005.79,VALID,0,VALID,88.7773,VALID,0,VALID,25.6506,VALID,359,VALID,0.849219,
2008-10-11, 00:11:04,VALID,1005.76,VALID,0,VALID,88.7086,VALID,0,VALID,25.6311,VALID,359,VALID,0.725781,
2008-10-11, 00:12:04,VALID,1005.76,VALID,0,VALID,88.5866,VALID,0,VALID,25.5921,VALID,358,VALID,0.831641,
2008-10-11, 00:13:04,VALID,1005.77,VALID,0,VALID,88.3424,VALID,0,VALID,25.5727,VALID,346,VALID,1.32344,
2008-10-11, 00:14:04,VALID,1005.75,VALID,0,VALID,88.3424,VALID,0,VALID,25.5727,VALID,331,VALID,0.832031,
2008-10-11, 00:15:04,VALID,1005.78,VALID,0,VALID,88.3119,VALID,0,VALID,25.5727,VALID,358,VALID,0.967578,
2008-10-11, 00:16:04,VALID,1005.81,VALID,0,VALID,88.434,VALID,0,VALID,25.5727,VALID,347,VALID,0.926953,
2008-10-11, 00:17:04,VALID,1005.82,VALID,0,VALID,88.4264,VALID,0,VALID,25.5727,VALID,352,VALID,1.07773,
2008-10-11, 00:18:04,VALID,1005.84,VALID,0,VALID,88.5408,VALID,0,VALID,25.5921,VALID,351,VALID,0.997266,
2008-10-11, 00:19:04,VALID,1005.81,VALID,0,VALID,88.5942,VALID,0,VALID,25.6136,VALID,350,VALID,1.14219,
2008-10-11, 00:20:04,VALID,1005.8,VALID,0,VALID,88.7086,VALID,0,VALID,25.6506,VALID,5,VALID,1.34453,
2008-10-11, 00:21:04,VALID,1005.77,VALID,0,VALID,88.6705,VALID,0,VALID,25.6895,VALID,6,VALID,1.72617,
2008-10-11, 00:22:04,VALID,1005.74,VALID,0,VALID,88.5484,VALID,0,VALID,25.748,VALID,6,VALID,1.08008,
2008-10-11, 00:23:04,VALID,1005.69,VALID,0,VALID,88.4111,VALID,0,VALID,25.7869,VALID,356,VALID,1.06641,
2008-10-11, 00:24:04,VALID,1005.68,VALID,0,VALID,88.2356,VALID,0,VALID,25.7674,VALID,353,VALID,1.03164,
2008-10-11, 00:25:04,VALID,1005.66,VALID,0,VALID,88.1975,VALID,0,VALID,25.8064,VALID,2,VALID,1.16562,
2008-10-11, 00:26:04,VALID,1005.61,VALID,0,VALID,88.167,VALID,0,VALID,25.8278,VALID,334,VALID,0.723828,
2008-10-11, 00:27:04,VALID,1005.58,VALID,0,VALID,87.8618,VALID,0.100563,VALID,25.8453,VALID,357,VALID,0.958594,
2008-10-11, 00:28:04,VALID,1005.56,VALID,0,VALID,87.6635,VALID,0,VALID,25.9447,VALID,356,VALID,0.894531,
2008-10-11, 00:29:04,VALID,1005.53,VALID,0,VALID,87.6482,VALID,0,VALID,25.9622,VALID,7,VALID,0.817187,
2008-10-11, 00:30:04,VALID,1005.51,VALID,0,VALID,87.549,VALID,0,VALID,25.9622,VALID,14,VALID,0.8375,
2008-10-11, 00:31:04,VALID,1005.4,VALID,0,VALID,87.5948,VALID,0,VALID,25.9622,VALID,19,VALID,0.819531,
2008-10-11, 00:32:04,VALID,1005.41,VALID,0,VALID,87.7703,VALID,0,VALID,25.9622,VALID,19,VALID,0.646875,
2008-10-11, 00:33:04,VALID,1005.35,VALID,0,VALID,87.7092,VALID,0,VALID,25.9622,VALID,26,VALID,1.13086,
2008-10-11, 00:34:04,VALID,1005.31,VALID,0,VALID,87.6863,VALID,0.100563,VALID,26.0031,VALID,2,VALID,0.778516,
2008-10-11, 00:35:04,VALID,1005.28,VALID,0,VALID,87.7169,VALID,0,VALID,26.0012,VALID,355,VALID,0.426172,
2008-10-11, 00:36:04,VALID,1005.23,VALID,0,VALID,87.6253,VALID,0,VALID,25.9817,VALID,9,VALID,0.845703,
2008-10-11, 00:37:04,VALID,1005.23,VALID,0,VALID,87.7932,VALID,0.100563,VALID,25.9817,VALID,28,VALID,0.592969,
2008-10-11, 00:38:04,VALID,1005.24,VALID,0,VALID,88.1136,VALID,0,VALID,25.9817,VALID,360,VALID,0.452734,
2008-10-11, 00:39:04,VALID,1005.19,VALID,0,VALID,88.3501,VALID,0,VALID,25.9622,VALID,4,VALID,0.280078,
2008-10-11, 00:40:04,VALID,1005.16,VALID,0,VALID,88.3806,VALID,0.100563,VALID,25.9232,VALID,14,VALID,0.474609,
2008-10-11, 00:41:04,VALID,1005.12,VALID,0,VALID,88.4569,VALID,0,VALID,25.8843,VALID,2,VALID,0.445313,
2008-10-11, 00:42:04,VALID,1005.11,VALID,0,VALID,88.3501,VALID,0,VALID,25.8648,VALID,343,VALID,0.263672,
2008-10-11, 00:43:04,VALID,1005.1,VALID,0,VALID,88.3653,VALID,0,VALID,25.8473,VALID,343,VALID,0.524609,
2008-10-11, 00:44:04,VALID,1005.13,VALID,0,VALID,88.6018,VALID,0,VALID,25.7869,VALID,355,VALID,0.303906,
2008-10-11, 00:45:04,VALID,1005.14,VALID,0,VALID,88.5332,VALID,0,VALID,25.7285,VALID,350,VALID,1.10469,
2008-10-11, 00:46:04,VALID,1005.14,VALID,0,VALID,88.8612,VALID,0,VALID,25.7109,VALID,352,VALID,0.698047,
2008-10-11, 00:47:04,VALID,1005.16,VALID,0,VALID,88.9985,VALID,0,VALID,25.6311,VALID,356,VALID,0.964063,
2008-10-11, 00:48:04,VALID,1005.15,VALID,0,VALID,89.2884,VALID,0,VALID,25.5921,VALID,360,VALID,0.641016,
2008-10-11, 00:49:04,VALID,1005.13,VALID,0,VALID,88.8917,VALID,0,VALID,25.5337,VALID,340,VALID,0.380469,
2008-10-11, 00:50:04,VALID,1005.16,VALID,0,VALID,89.029,VALID,0,VALID,25.5337,VALID,22,VALID,0.866016,
2008-10-11, 00:51:04,VALID,1005.14,VALID,0,VALID,89.0901,VALID,0,VALID,25.5357,VALID,358,VALID,0.921484,
2008-10-11, 00:52:04,VALID,1005.17,VALID,0,VALID,89.1358,VALID,0,VALID,25.5337,VALID,354,VALID,0.821094,
2008-10-11, 00:53:04,VALID,1005.15,VALID,0,VALID,89.2884,VALID,0,VALID,25.5337,VALID,354,VALID,0.619531,
2008-10-11, 00:54:04,VALID,1005.18,VALID,0,VALID,89.3189,VALID,0,VALID,25.5337,VALID,357,VALID,0.803906,
2008-10-11, 00:55:04,VALID,1005.19,VALID,0,VALID,89.3189,VALID,0,VALID,25.5551,VALID,351,VALID,0.444141,
2008-10-11, 00:56:04,VALID,1005.19,VALID,0,VALID,89.4944,VALID,0,VALID,25.5551,VALID,355,VALID,0.469141,
2008-10-11, 00:57:04,VALID,1005.19,VALID,0,VALID,89.6165,VALID,0,VALID,25.5746,VALID,6,VALID,0.589063,
2008-10-11, 00:58:04,VALID,1005.21,VALID,0,VALID,89.6393,VALID,0,VALID,25.5941,VALID,355,VALID,0.727344,
2008-10-11, 00:59:04,VALID,1005.18,VALID,0,VALID,89.3876,VALID,0,VALID,25.6136,VALID,356,VALID,1.47344,
2008-10-11, 01:00:04,VALID,1005.21,VALID,0,VALID,88.8993,VALID,0,VALID,25.6525,VALID,2,VALID,1.53047,
2008-10-11, 01:01:04,VALID,1005.19,VALID,0,VALID,88.0525,VALID,0,VALID,25.6915,VALID,354,VALID,1.22422,
2008-10-11, 01:02:04,VALID,1005.15,VALID,0,VALID,87.5567,VALID,0,VALID,25.672,VALID,9,VALID,1.13086,
2008-10-11, 01:03:04,VALID,1005.12,VALID,0,VALID,87.16,VALID,0,VALID,25.6506,VALID,16,VALID,1.15547,
2008-10-11, 01:04:04,VALID,1005.07,VALID,0,VALID,87.0379,VALID,0,VALID,25.6525,VALID,22,VALID,1.29648,
2008-10-11, 01:05:04,VALID,1005.07,VALID,0,VALID,87.2057,VALID,0,VALID,25.6136,VALID,2,VALID,0.783203,
2008-10-11, 01:06:04,VALID,1005.06,VALID,0,VALID,87.1828,VALID,0,VALID,25.5941,VALID,22,VALID,1.24141,
2008-10-11, 01:07:04,VALID,1005.02,VALID,0,VALID,87.1828,VALID,0,VALID,25.5746,VALID,9,VALID,0.827734,
2008-10-11, 01:08:04,VALID,1005,VALID,0,VALID,87.0913,VALID,0,VALID,25.5551,VALID,25,VALID,0.928906,
2008-10-11, 01:09:04,VALID,1005.03,VALID,0,VALID,87.4117,VALID,0.100563,VALID,25.5532,VALID,6,VALID,0.742578,
2008-10-11, 01:10:04,VALID,1005.04,VALID,0,VALID,87.1676,VALID,0.100563,VALID,25.5337,VALID,9,VALID,0.449219,
2008-10-11, 01:11:04,VALID,1004.99,VALID,0,VALID,87.0303,VALID,0.100563,VALID,25.5123,VALID,30,VALID,1.59258,
2008-10-11, 01:12:04,VALID,1005.04,VALID,0,VALID,87.0303,VALID,0.100563,VALID,25.5727,VALID,24,VALID,1.43047,
2008-10-11, 01:13:04,VALID,1005.03,VALID,0,VALID,86.9845,VALID,0.100563,VALID,25.6136,VALID,9,VALID,0.580859,
2008-10-11, 01:14:04,VALID,1005.05,VALID,0,VALID,86.3589,VALID,0.100563,VALID,25.6311,VALID,32,VALID,1.36289,
2008-10-11, 01:15:04,VALID,1005.07,VALID,0,VALID,86.1148,VALID,0.100563,VALID,25.709,VALID,14,VALID,0.721484,
2008-10-11, 01:16:04,VALID,1005.07,VALID,0,VALID,85.3748,VALID,0.100563,VALID,25.709,VALID,51,VALID,0.959766,
2008-10-11, 01:17:04,VALID,1005.03,VALID,0,VALID,85.5732,VALID,0.100563,VALID,25.748,VALID,359,VALID,0.648828,
2008-10-11, 01:18:04,VALID,1005.02,VALID,0,VALID,84.795,VALID,0,VALID,25.7285,VALID,334,VALID,1.2293,
2008-10-11, 01:19:04,VALID,1005.01,VALID,0,VALID,84.7035,VALID,0,VALID,25.7071,VALID,350,VALID,0.910937,
2008-10-11, 01:20:04,VALID,1004.99,VALID,0,VALID,84.589,VALID,0.100563,VALID,25.67,VALID,353,VALID,0.907031,
2008-10-11, 01:21:04,VALID,1005.02,VALID,0,VALID,84.7111,VALID,0.100563,VALID,25.6486,VALID,344,VALID,0.694141,
2008-10-11, 01:22:04,VALID,1005.02,VALID,0,VALID,84.9857,VALID,0.100563,VALID,25.6311,VALID,356,VALID,0.646484,
2008-10-11, 01:23:04,VALID,1005.02,VALID,0,VALID,84.9323,VALID,0.100563,VALID,25.5727,VALID,354,VALID,0.874609,
2008-10-11, 01:24:04,VALID,1005,VALID,0,VALID,84.9171,VALID,0,VALID,25.5357,VALID,356,VALID,0.694531,
2008-10-11, 01:25:04,VALID,1005.01,VALID,0,VALID,84.3449,VALID,0,VALID,25.5142,VALID,28,VALID,0.733984,
2008-10-11, 01:26:04,VALID,1005.04,VALID,0,VALID,83.9406,VALID,0,VALID,25.5357,VALID,338,VALID,0.895703,
2008-10-11, 01:27:04,VALID,1005.04,VALID,0,VALID,83.5973,VALID,0,VALID,25.5357,VALID,355,VALID,0.714844,
2008-10-11, 01:28:04,VALID,1005.04,VALID,0,VALID,83.788,VALID,0,VALID,25.5551,VALID,27,VALID,0.988281,
2008-10-11, 01:29:04,VALID,1005.08,VALID,0,VALID,83.7422,VALID,0,VALID,25.5551,VALID,29,VALID,0.903125,
2008-10-11, 01:30:04,VALID,1005.09,VALID,0,VALID,83.8643,VALID,0,VALID,25.4967,VALID,29,VALID,0.842578,
2008-10-11, 01:31:04,VALID,1005.1,VALID,0,VALID,84.7263,VALID,0,VALID,25.4772,VALID,73,VALID,0.801172,
2008-10-11, 01:32:04,VALID,1005.1,VALID,0,VALID,85.4129,VALID,0,VALID,25.3993,VALID,88,VALID,0.4625,
2008-10-11, 01:33:04,VALID,1005.11,VALID,0,VALID,85.9851,VALID,0,VALID,25.3214,VALID,86,VALID,0.330078,
2008-10-11, 01:34:04,VALID,1005.11,VALID,0,VALID,86.1682,VALID,0,VALID,25.2435,VALID,50,VALID,0.278906,
2008-10-11, 01:35:04,VALID,1005.1,VALID,0,VALID,86.4886,VALID,0,VALID,25.1637,VALID,58,VALID,0.280859,
2008-10-11, 01:36:04,VALID,1005.08,VALID,0,VALID,86.6259,VALID,0,VALID,25.1461,VALID,57,VALID,0.633984,
2008-10-11, 01:37:04,VALID,1005.08,VALID,0,VALID,86.8929,VALID,0,VALID,25.1053,VALID,28,VALID,0.420312,
2008-10-11, 01:38:04,VALID,1005.06,VALID,0,VALID,87.0379,VALID,0,VALID,25.0877,VALID,28,VALID,0.407422,
2008-10-11, 01:39:04,VALID,1005.03,VALID,0,VALID,86.9921,VALID,0,VALID,25.1461,VALID,357,VALID,0.978516,
2008-10-11, 01:40:04,VALID,1005.03,VALID,0,VALID,86.5802,VALID,0,VALID,25.224,VALID,44,VALID,0.876953,
2008-10-11, 01:41:04,VALID,1005.02,VALID,0,VALID,86.5268,VALID,0,VALID,25.2416,VALID,54,VALID,0.513281,
2008-10-11, 01:42:04,VALID,1005,VALID,0,VALID,86.5725,VALID,0,VALID,25.3019,VALID,39,VALID,0.805469,
2008-10-11, 01:43:04,VALID,1004.95,VALID,0,VALID,86.481,VALID,0,VALID,25.3798,VALID,37,VALID,0.553125,
2008-10-11, 01:44:04,VALID,1004.96,VALID,0,VALID,86.6717,VALID,0,VALID,25.3993,VALID,63,VALID,0.983984,
2008-10-11, 01:45:04,VALID,1004.95,VALID,0,VALID,86.6259,VALID,0,VALID,25.4383,VALID,38,VALID,0.667578,
2008-10-11, 01:46:04,VALID,1004.96,VALID,0,VALID,86.5191,VALID,0,VALID,25.4363,VALID,45,VALID,0.151562,
2008-10-11, 01:47:04,VALID,1004.92,VALID,0,VALID,86.6717,VALID,0,VALID,25.4772,VALID,93,VALID,0.802734,
2008-10-11, 01:48:04,VALID,1004.93,VALID,0,VALID,86.6717,VALID,0,VALID,25.4753,VALID,86,VALID,0.850391,
2008-10-11, 01:49:04,VALID,1004.87,VALID,0,VALID,86.6565,VALID,0,VALID,25.4967,VALID,59,VALID,0.466406,
2008-10-11, 01:50:04,VALID,1004.82,VALID,0,VALID,86.6412,VALID,0,VALID,25.4967,VALID,59,VALID,0.177344,
2008-10-11, 01:51:04,VALID,1004.82,VALID,0,VALID,86.8319,VALID,0,VALID,25.4772,VALID,37,VALID,0.98125,
2008-10-11, 01:52:04,VALID,1004.79,VALID,0,VALID,86.8014,VALID,0,VALID,25.4948,VALID,31,VALID,0.564062,
2008-10-11, 01:53:04,VALID,1004.77,VALID,0,VALID,86.7099,VALID,0,VALID,25.5142,VALID,34,VALID,0.254687,
2008-10-11, 01:54:04,VALID,1004.78,VALID,0,VALID,86.8701,VALID,0,VALID,25.5162,VALID,35,VALID,0.502734,
2008-10-11, 01:55:04,VALID,1004.78,VALID,0,VALID,86.9616,VALID,0,VALID,25.4558,VALID,23,VALID,0.164453,
2008-10-11, 01:56:04,VALID,1004.79,VALID,0,VALID,87.1447,VALID,0,VALID,25.4383,VALID,23,VALID,0.494531,
2008-10-11, 01:57:04,VALID,1004.75,VALID,0,VALID,87.3888,VALID,0,VALID,25.3993,VALID,26,VALID,0.835156,
2008-10-11, 01:58:04,VALID,1004.76,VALID,0,VALID,87.6101,VALID,0,VALID,25.3798,VALID,28,VALID,0.247656,
2008-10-11, 01:59:04,VALID,1004.74,VALID,0,VALID,87.6558,VALID,0,VALID,25.3195,VALID,23,VALID,0.579297,
2008-10-11, 02:00:04,VALID,1004.74,VALID,0,VALID,87.8008,VALID,0,VALID,25.2806,VALID,24,VALID,0.790625,
2008-10-11, 02:01:04,VALID,1004.71,VALID,0,VALID,87.961,VALID,0,VALID,25.263,VALID,22,VALID,0.51875,
2008-10-11, 02:02:04,VALID,1004.68,VALID,0,VALID,88.0907,VALID,0,VALID,25.2221,VALID,22,VALID,0.296875,
2008-10-11, 02:03:04,VALID,1004.68,VALID,0,VALID,88.2356,VALID,0,VALID,25.2046,VALID,22,VALID,0,
2008-10-11, 02:04:04,VALID,1004.66,VALID,0,VALID,88.4721,VALID,0,VALID,25.1461,VALID,22,VALID,0.415234,
2008-10-11, 02:05:04,VALID,1004.65,VALID,0,VALID,88.6705,VALID,0,VALID,25.0663,VALID,16,VALID,0.521484,
2008-10-11, 02:06:04,VALID,1004.66,VALID,0,VALID,88.8002,VALID,0,VALID,25.0274,VALID,17,VALID,0.803516,
2008-10-11, 02:07:04,VALID,1004.67,VALID,0,VALID,89.0748,VALID,0,VALID,25.0098,VALID,18,VALID,0.382031,
2008-10-11, 02:08:04,VALID,1004.69,VALID,0,VALID,89.2198,VALID,0,VALID,24.9709,VALID,18,VALID,0.460938,
2008-10-11, 02:09:04,VALID,1004.7,VALID,0,VALID,89.4028,VALID,0,VALID,24.9125,VALID,18,VALID,0.620703,
2008-10-11, 02:10:04,VALID,1004.71,VALID,0,VALID,89.6393,VALID,0.100563,VALID,24.8735,VALID,18,VALID,0.518359,
2008-10-11, 02:11:04,VALID,1004.73,VALID,0,VALID,89.6851,VALID,0,VALID,24.8346,VALID,19,VALID,0.578516,
2008-10-11, 02:12:04,VALID,1004.74,VALID,0,VALID,89.5173,VALID,0,VALID,24.854,VALID,30,VALID,0.843359,
2008-10-11, 02:13:04,VALID,1004.75,VALID,0,VALID,88.9527,VALID,0,VALID,24.93,VALID,41,VALID,0.877344,
2008-10-11, 02:14:04,VALID,1004.72,VALID,0,VALID,88.4569,VALID,0,VALID,25.0079,VALID,33,VALID,0.849609,
2008-10-11, 02:15:04,VALID,1004.73,VALID,0,VALID,88.2661,VALID,0,VALID,25.0858,VALID,33,VALID,0.496484,
2008-10-11, 02:16:04,VALID,1004.75,VALID,0,VALID,88.0068,VALID,0,VALID,25.1267,VALID,39,VALID,0.685938,
2008-10-11, 02:17:04,VALID,1004.76,VALID,0,VALID,87.5948,VALID,0,VALID,25.1248,VALID,22,VALID,1.10742,
2008-10-11, 02:18:04,VALID,1004.77,VALID,0,VALID,87.3125,VALID,0,VALID,25.2027,VALID,26,VALID,0.832422,
2008-10-11, 02:19:04,VALID,1004.79,VALID,0,VALID,87.1523,VALID,0,VALID,25.2435,VALID,29,VALID,0.835938,
2008-10-11, 02:20:04,VALID,1004.81,VALID,0,VALID,87.2286,VALID,0,VALID,25.2221,VALID,20,VALID,0.501953,
2008-10-11, 02:21:04,VALID,1004.83,VALID,0,VALID,87.1523,VALID,0,VALID,25.1832,VALID,86,VALID,0.712891,
2008-10-11, 02:22:04,VALID,1004.84,VALID,0,VALID,86.7556,VALID,0,VALID,25.2416,VALID,20,VALID,0.886719,
2008-10-11, 02:23:04,VALID,1004.87,VALID,0,VALID,86.8624,VALID,0,VALID,25.2825,VALID,18,VALID,0.675391,
2008-10-11, 02:24:04,VALID,1004.88,VALID,0,VALID,86.6183,VALID,0,VALID,25.3019,VALID,11,VALID,0.480078,
2008-10-11, 02:25:04,VALID,1004.93,VALID,0,VALID,86.3208,VALID,0,VALID,25.3214,VALID,356,VALID,0.650781,
2008-10-11, 02:26:04,VALID,1004.95,VALID,0,VALID,86.1835,VALID,0,VALID,25.3195,VALID,6,VALID,0.870703,
2008-10-11, 02:27:04,VALID,1005.02,VALID,0,VALID,85.6266,VALID,0,VALID,25.3779,VALID,25,VALID,0.752734,
2008-10-11, 02:28:04,VALID,1005.04,VALID,0,VALID,85.1917,VALID,0,VALID,25.4772,VALID,37,VALID,0.542578,
2008-10-11, 02:29:04,VALID,1005.05,VALID,0,VALID,84.6577,VALID,0,VALID,25.4948,VALID,26,VALID,1.15195,
2008-10-11, 02:30:04,VALID,1005.08,VALID,0,VALID,84.94,VALID,0,VALID,25.5727,VALID,25,VALID,0.557813,
2008-10-11, 02:31:04,VALID,1005.11,VALID,0,VALID,84.8713,VALID,0,VALID,25.5551,VALID,16,VALID,0.595703,
2008-10-11, 02:32:04,VALID,1005.12,VALID,0,VALID,85.5655,VALID,0,VALID,25.4948,VALID,16,VALID,0.573047,
2008-10-11, 02:33:04,VALID,1005.12,VALID,0,VALID,85.9012,VALID,0,VALID,25.4383,VALID,12,VALID,0.581641,
2008-10-11, 02:34:04,VALID,1005.14,VALID,0,VALID,86.5268,VALID,0,VALID,25.3409,VALID,12,VALID,0.545703,
2008-10-11, 02:35:04,VALID,1005.17,VALID,0,VALID,87.2057,VALID,0,VALID,25.224,VALID,12,VALID,0.58125,
2008-10-11, 02:36:04,VALID,1005.18,VALID,0,VALID,87.7474,VALID,0,VALID,25.0858,VALID,12,VALID,0.446875,
2008-10-11, 02:37:04,VALID,1005.14,VALID,0,VALID,88.2814,VALID,0,VALID,24.9885,VALID,12,VALID,0.479297,
2008-10-11, 02:38:04,VALID,1005.14,VALID,0,VALID,88.2585,VALID,0,VALID,24.9106,VALID,11,VALID,0.419141,
2008-10-11, 02:39:04,VALID,1005.13,VALID,0,VALID,88.2509,VALID,0,VALID,24.93,VALID,11,VALID,0.612109,
2008-10-11, 02:40:04,VALID,1005.16,VALID,0,VALID,88.6247,VALID,0,VALID,24.9514,VALID,11,VALID,0.482031,
2008-10-11, 02:41:04,VALID,1005.17,VALID,0,VALID,88.5942,VALID,0,VALID,24.8911,VALID,11,VALID,0.419531,
2008-10-11, 02:42:04,VALID,1005.18,VALID,0,VALID,88.6705,VALID,0,VALID,24.8522,VALID,11,VALID,0.394922,
2008-10-11, 02:43:04,VALID,1005.19,VALID,0,VALID,88.907,VALID,0,VALID,24.8327,VALID,11,VALID,0.162109,
2008-10-11, 02:44:04,VALID,1005.18,VALID,0,VALID,88.968,VALID,0,VALID,24.8327,VALID,11,VALID,0.281641,
2008-10-11, 02:45:04,VALID,1005.16,VALID,0,VALID,89.0672,VALID,0,VALID,24.8151,VALID,11,VALID,0.426172,
2008-10-11, 02:46:04,VALID,1005.14,VALID,0,VALID,88.9756,VALID,0,VALID,24.7937,VALID,11,VALID,0.426172,
2008-10-11, 02:47:04,VALID,1005.11,VALID,0,VALID,88.9222,VALID,0,VALID,24.8151,VALID,11,VALID,0.568359,
2008-10-11, 02:48:04,VALID,1005.09,VALID,0,VALID,88.8841,VALID,0,VALID,24.7937,VALID,21,VALID,0.502344,
2008-10-11, 02:49:04,VALID,1005.09,VALID,0,VALID,88.5255,VALID,0,VALID,24.8132,VALID,355,VALID,1.18984,
2008-10-11, 02:50:04,VALID,1005.06,VALID,0,VALID,87.9,VALID,0.100563,VALID,24.9106,VALID,10,VALID,1.36875,
2008-10-11, 02:51:04,VALID,1005.06,VALID,0,VALID,87.343,VALID,0,VALID,25.0488,VALID,1,VALID,1.45547,
2008-10-11, 02:52:04,VALID,1005.02,VALID,0,VALID,86.6946,VALID,0,VALID,25.1637,VALID,39,VALID,0.671875,
2008-10-11, 02:53:04,VALID,1005,VALID,0,VALID,86.3742,VALID,0,VALID,25.2825,VALID,359,VALID,0.689844,
2008-10-11, 02:54:04,VALID,1004.97,VALID,0,VALID,85.9088,VALID,0,VALID,25.3,VALID,1,VALID,0.623438,
2008-10-11, 02:55:04,VALID,1004.96,VALID,0,VALID,85.6494,VALID,0,VALID,25.3993,VALID,337,VALID,0.454297,
2008-10-11, 02:56:04,VALID,1004.94,VALID,0,VALID,85.2451,VALID,0,VALID,25.4188,VALID,5,VALID,0.654688,
2008-10-11, 02:57:04,VALID,1004.93,VALID,0,VALID,85.1917,VALID,0,VALID,25.4363,VALID,4,VALID,0.473828,
2008-10-11, 02:58:04,VALID,1004.91,VALID,0,VALID,85.001,VALID,0,VALID,25.4577,VALID,352,VALID,0.646094,
2008-10-11, 02:59:04,VALID,1004.92,VALID,0,VALID,84.2915,VALID,0,VALID,25.5551,VALID,341,VALID,0.949219,
2008-10-11, 03:00:04,VALID,1004.92,VALID,0,VALID,84.1923,VALID,0,VALID,25.5941,VALID,10,VALID,0.975,
2008-10-11, 03:01:04,VALID,1004.92,VALID,0,VALID,84.0245,VALID,0,VALID,25.5746,VALID,348,VALID,1.25469,
2008-10-11, 03:02:04,VALID,1004.94,VALID,0,VALID,84.0779,VALID,0,VALID,25.5727,VALID,6,VALID,1.06719,
2008-10-11, 03:03:04,VALID,1004.95,VALID,0,VALID,84.1313,VALID,0,VALID,25.5532,VALID,355,VALID,0.957422,
2008-10-11, 03:04:04,VALID,1004.97,VALID,0,VALID,84.3373,VALID,0,VALID,25.5532,VALID,12,VALID,0.834766,
2008-10-11, 03:05:04,VALID,1004.94,VALID,0,VALID,84.467,VALID,0,VALID,25.5337,VALID,25,VALID,1.06953,
2008-10-11, 03:06:04,VALID,1004.92,VALID,0,VALID,84.5204,VALID,0,VALID,25.5162,VALID,14,VALID,0.916797,
2008-10-11, 03:07:04,VALID,1004.95,VALID,0,VALID,84.3068,VALID,0,VALID,25.5142,VALID,27,VALID,0.780078,
2008-10-11, 03:08:04,VALID,1004.93,VALID,0,VALID,84.5051,VALID,0,VALID,25.5142,VALID,11,VALID,0.827344,
2008-10-11, 03:09:04,VALID,1004.92,VALID,0,VALID,84.0779,VALID,0,VALID,25.5551,VALID,355,VALID,1.13516,
2008-10-11, 03:10:04,VALID,1004.93,VALID,0,VALID,84.3144,VALID,0,VALID,25.5532,VALID,354,VALID,0.727734,
2008-10-11, 03:11:04,VALID,1004.87,VALID,0,VALID,84.2381,VALID,0,VALID,25.5142,VALID,350,VALID,0.707422,
2008-10-11, 03:12:04,VALID,1004.87,VALID,0,VALID,84.3907,VALID,0,VALID,25.4948,VALID,351,VALID,0.737891,
2008-10-11, 03:13:04,VALID,1004.84,VALID,0,VALID,84.6272,VALID,0,VALID,25.4558,VALID,11,VALID,0.982813,
2008-10-11, 03:14:04,VALID,1004.82,VALID,0,VALID,84.6272,VALID,0,VALID,25.4383,VALID,355,VALID,1.01797,
2008-10-11, 03:15:04,VALID,1004.79,VALID,0,VALID,84.734,VALID,0,VALID,25.4169,VALID,357,VALID,1.46406,
2008-10-11, 03:16:04,VALID,1004.76,VALID,0,VALID,84.6424,VALID,0,VALID,25.4363,VALID,353,VALID,1.11445,
2008-10-11, 03:17:04,VALID,1004.75,VALID,0,VALID,84.6958,VALID,0,VALID,25.4383,VALID,352,VALID,1.14648,
2008-10-11, 03:18:04,VALID,1004.74,VALID,0,VALID,84.7416,VALID,0,VALID,25.4383,VALID,351,VALID,1.14102,
2008-10-11, 03:19:04,VALID,1004.77,VALID,0,VALID,84.8026,VALID,0,VALID,25.3974,VALID,4,VALID,1.29766,
2008-10-11, 03:20:04,VALID,1004.8,VALID,0,VALID,84.7416,VALID,0,VALID,25.3993,VALID,353,VALID,0.982813,
2008-10-11, 03:21:04,VALID,1004.84,VALID,0,VALID,84.6272,VALID,0,VALID,25.3974,VALID,354,VALID,0.819531,
2008-10-11, 03:22:04,VALID,1004.9,VALID,0,VALID,84.6729,VALID,0,VALID,25.3779,VALID,352,VALID,0.844141,
2008-10-11, 03:23:04,VALID,1004.96,VALID,0,VALID,84.6806,VALID,0,VALID,25.3779,VALID,360,VALID,0.657422,
2008-10-11, 03:24:04,VALID,1004.98,VALID,0,VALID,84.6424,VALID,0,VALID,25.3584,VALID,347,VALID,0.853125,
2008-10-11, 03:25:04,VALID,1005.04,VALID,0,VALID,84.7416,VALID,0,VALID,25.3993,VALID,3,VALID,0.910547,
2008-10-11, 03:26:04,VALID,1005.05,VALID,0,VALID,84.5051,VALID,0,VALID,25.3779,VALID,6,VALID,0.878125,
2008-10-11, 03:27:04,VALID,1005.09,VALID,0,VALID,84.3296,VALID,0,VALID,25.3993,VALID,48,VALID,1.08398,
2008-10-11, 03:28:04,VALID,1005.12,VALID,0,VALID,84.3602,VALID,0,VALID,25.3974,VALID,32,VALID,0.595703,
2008-10-11, 03:29:04,VALID,1005.12,VALID,0,VALID,84.1694,VALID,0,VALID,25.3974,VALID,33,VALID,0.473437,
2008-10-11, 03:30:04,VALID,1005.17,VALID,0,VALID,84.2,VALID,0,VALID,25.4188,VALID,31,VALID,0.30625,
2008-10-11, 03:31:04,VALID,1005.15,VALID,0,VALID,84.5204,VALID,0,VALID,25.3993,VALID,31,VALID,0.304688,
2008-10-11, 03:32:04,VALID,1005.13,VALID,0,VALID,84.4517,VALID,0,VALID,25.3604,VALID,39,VALID,0.459375,
2008-10-11, 03:33:04,VALID,1005.11,VALID,0,VALID,84.8408,VALID,0,VALID,25.3409,VALID,30,VALID,0.775,
2008-10-11, 03:34:04,VALID,1005.08,VALID,0,VALID,85.4053,VALID,0,VALID,25.2416,VALID,27,VALID,0.819922,
2008-10-11, 03:35:04,VALID,1005.05,VALID,0,VALID,85.9088,VALID,0,VALID,25.1637,VALID,26,VALID,0.3875,
2008-10-11, 03:36:04,VALID,1005.01,VALID,0,VALID,86.4428,VALID,0,VALID,25.1053,VALID,32,VALID,0.524219,
2008-10-11, 03:37:04,VALID,1004.99,VALID,0,VALID,86.8319,VALID,0,VALID,25.0079,VALID,28,VALID,0.661719,
2008-10-11, 03:38:05,VALID,1004.97,VALID,0,VALID,86.954,VALID,0,VALID,24.93,VALID,360,VALID,0.513281,
2008-10-11, 03:39:05,VALID,1004.91,VALID,0,VALID,87.1218,VALID,0,VALID,24.9125,VALID,31,VALID,0.676172,
2008-10-11, 03:40:05,VALID,1004.94,VALID,0,VALID,86.5268,VALID,0,VALID,24.93,VALID,352,VALID,0.851563,
2008-10-11, 03:41:05,VALID,1004.94,VALID,0,VALID,85.7105,VALID,0,VALID,25.0079,VALID,18,VALID,1.0375,
2008-10-11, 03:42:05,VALID,1004.95,VALID,0,VALID,85.0544,VALID,0,VALID,25.1267,VALID,7,VALID,1.22695,
2008-10-11, 03:43:05,VALID,1004.98,VALID,0,VALID,84.6043,VALID,0,VALID,25.263,VALID,9,VALID,1.17578,
2008-10-11, 03:44:05,VALID,1005.05,VALID,0,VALID,84.1313,VALID,0,VALID,25.2806,VALID,22,VALID,0.877734,
2008-10-11, 03:45:05,VALID,1005.09,VALID,0,VALID,83.7804,VALID,0,VALID,25.3584,VALID,32,VALID,0.753516,